Regional Weather Roundup
Issued by NWS

Home | Current Version | Previous Version | Text Only | Print | Product List | Glossary Off
Versions: 1 2 3 4 5 6 7 8 9 10 11 12 13 14 15 16 17 18 19 20 21 22 23 24 25 26 27

000
ASUS45 KBOI 240210
RWRID

IDAHO REGIONAL WEATHER ROUNDUP
NATIONAL WEATHER SERVICE BOISE ID
800 PM MDT SUN APR 23 2017

NOTE: "FAIR" INDICATES FEW OR NO CLOUDS BELOW 12000 FEET
WITH NO SIGNIFICANT WEATHER AND/OR OBSTRUCTIONS TO VISIBILITY

IDZ012-014-240300-
SOUTHWEST IDAHO


CITY           SKY/WX    TMP DP  RH WIND       PRES   REMARKS
BOISE          MOCLDY    58  41  53 N7        29.76F
CALDWELL       CLOUDY    61  36  39 CALM      29.75F
MOUNTAIN HOME  MOCLDY    57  41  54 N8        29.76F
$$

IDZ016-017-240300-
SOUTHCENTRAL IDAHO


CITY           SKY/WX    TMP DP  RH WIND       PRES   REMARKS
BURLEY         CLEAR     57  35  43 W6        29.76S
JEROME         PTCLDY    57  36  45 W14       29.78R
TWIN FALLS     MOCLDY    57  39  51 NW13      29.78R
$$

IDZ019>023-240300-
SOUTHEAST IDAHO


CITY           SKY/WX    TMP DP  RH WIND       PRES   REMARKS
IDAHO FALLS    MOCLDY    52  37  56 NW13      29.78S
POCATELLO      PTCLDY    55  36  48 W10       29.79R
REXBURG        CLOUDY    48  37  65 NE8       29.77R
$$

IDZ006-010-011-018-031-032-240300-
CENTRAL IDAHO MOUNTAINS


CITY           SKY/WX    TMP DP  RH WIND       PRES   REMARKS
MCCALL         CLOUDY    42  32  67 S9        29.78F
HAILEY         PTCLDY    54  27  35 W8        29.79S
STANLEY          N/A     40  32  73 VRB3      29.83R
SALMON         MOCLDY    46  36  66 SE5       29.77R
CHALLIS        PTCLDY    51  29  42 W7        29.76S
$$

IDZ002-004-006-007-026-240300-
NORTHERN IDAHO


CITY           SKY/WX    TMP DP  RH WIND       PRES   REMARKS
LEWISTON       CLOUDY    55  44  66 S7        29.79S
LOWELL           N/A     53  48  83 VRB3      29.80S
COEUR D`ALENE  CLOUDY    52  38  58 SW12      29.75F
MULLAN PASS    CLOUDY    34  30  85 VRB6      29.76F WCI  29
$$




USA.gov is the U.S. government's official web portal to all federal, state and local government web resources and services.